[[{"header":{"parameterUnit":"m.s-1","parameterCategory":1,"la1":30.2992,"la2":30.254,"lo1":-89.0895,"lo2":-89.0443,"dy":0.0025,"dx":0.0025,"nx":19,"ny":19,"refTime":"2026-05-08T03:00:00:Z","depth":0,"parameterNumber":2,"parameterNumberName":"U-component_of_WINDS"},"data":[0,0,0,-0.2402,-0.2399,-0.222,-0.222,-0.1998,-0.1996,0,0,0,0,0,0,0,0,0,0,0,-0.2464,-0.2463,-0.2402,-0.2398,-0.2221,-0.222,-0.1998,-0.1996,0,0,0,0,0,0,0,0,0,0,0,-0.2465,-0.2463,-0.2462,-0.2398,-0.2221,-0.222,-0.1999,-0.213,0,0,0,0,0,0,0,0,0,0,-0.2301,-0.2369,-0.2464,-0.2462,-0.2397,-0.2221,-0.2219,-0.2136,-0.2121,-0.2083,0,-0.2055,0,-0.2022,-0.1982,-0.1981,0,0,0,-0.239,-0.2381,-0.2325,-0.2462,-0.2395,-0.2221,-0.2299,-0.2128,-0.2111,-0.2064,-0.2052,-0.2043,-0.2019,-0.1981,-0.198,-0.179,-0.1789,0,0,-0.24,-0.2436,-0.2336,-0.2315,-0.2348,-0.2304,-0.2293,-0.2118,-0.2106,-0.2051,-0.2038,-0.2015,-0.1979,-0.1978,-0.179,-0.1789,0,0,0,-0.2434,-0.2443,-0.2391,-0.2324,-0.2292,-0.2299,-0.2286,-0.2113,-0.2094,-0.2036,-0.2012,-0.1978,-0.1975,-0.1791,-0.179,-0.1798,0,0,0,-0.2439,-0.2463,-0.2396,-0.2416,-0.2295,-0.2202,-0.2286,-0.2106,-0.2085,-0.2014,-0.1978,-0.1973,-0.1791,-0.179,-0.1799,-0.1795,0,0,0,-0.2472,-0.2467,-0.2444,-0.2418,-0.2344,-0.2204,-0.2173,-0.21,-0.2071,-0.1981,-0.1973,-0.1792,-0.179,-0.18,-0.1797,-0.1753,0,0,0,-0.2517,-0.2456,-0.2445,-0.2366,-0.2345,-0.2212,-0.2174,-0.2072,-0.1997,-0.1977,-0.1791,-0.179,-0.18,-0.1798,-0.1754,-0.1721,-0.1712,0,0,-0.2459,-0.245,-0.24,-0.2386,-0.2264,-0.2236,-0.2112,-0.2008,-0.1966,-0.1849,-0.1844,-0.1799,-0.1797,-0.1753,-0.1651,-0.1644,0,0,0,-0.2394,-0.2358,-0.2318,-0.2249,-0.2169,-0.2096,-0.2008,-0.1967,-0.1867,-0.1915,-0.1771,-0.1769,-0.1742,-0.1724,-0.1718,-0.169,-0.1784,-0.1784,-0.1784,-0.2363,-0.2312,-0.2224,-0.2151,-0.2083,-0.1989,-0.1927,-0.1856,-0.1825,-0.1791,-0.1756,-0.1701,-0.1682,-0.1677,-0.1648,-0.1737,-0.1737,-0.1737,-0.1737,-0.2271,-0.2211,-0.2168,-0.2068,-0.2012,-0.1925,-0.1829,-0.1809,-0.1716,-0.1725,-0.1698,-0.1709,-0.1671,-0.1642,-0.1737,-0.1737,-0.1737,-0.1737,-0.1737,-0.2244,-0.2206,-0.2159,-0.2049,-0.1968,-0.1893,-0.1805,-0.1757,-0.171,-0.1684,-0.1638,-0.1638,-0.1628,-0.1666,-0.1666,-0.1666,-0.1665,-0.1665,-0.1665,-0.2234,-0.218,-0.2114,-0.202,-0.1965,-0.1887,-0.1788,-0.1731,-0.1655,-0.1626,-0.1625,-0.1593,-0.1678,-0.1699,-0.1662,-0.1662,-0.1663,-0.1663,-0.1663,-0.2156,-0.2165,-0.2064,-0.2009,-0.189,-0.1809,-0.1748,-0.1635,-0.158,-0.1537,-0.1509,-0.1581,-0.1567,-0.1572,-0.1588,-0.1524,-0.1524,-0.1524,-0.1524,-0.2132,-0.212,-0.2002,-0.1916,-0.1827,-0.1759,-0.1637,-0.1556,-0.1473,-0.1434,-0.1436,-0.1454,-0.1461,-0.1443,-0.145,-0.1464,-0.137,-0.137,-0.137,-0.2079,-0.2055,-0.1965,-0.1887,-0.1788,-0.1702,-0.1584,-0.1482,-0.1389,-0.1363,-0.1401,-0.1408,-0.1436,-0.145,-0.1425,-0.1437,-0.1463,0,0]},{"header":{"parameterUnit":"m.s-1","parameterCategory":1,"la1":30.2992,"la2":30.254,"lo1":-89.0895,"lo2":-89.0443,"dy":0.0025,"dx":0.0025,"nx":19,"ny":19,"refTime":"2026-05-08T03:00:00:Z","depth":0,"parameterNumber":3,"parameterNumberName":"V-component_of_WINDS"},"data":[0,0,0,-4.5272,-4.5272,-4.5254,-4.5254,-4.5227,-4.5227,0,0,0,0,0,0,0,0,0,0,0,-4.528,-4.528,-4.5272,-4.5272,-4.5254,-4.5254,-4.5227,-4.5227,0,0,0,0,0,0,0,0,0,0,0,-4.528,-4.528,-4.528,-4.5272,-4.5254,-4.5254,-4.5227,-4.5241,0,0,0,0,0,0,0,0,0,0,-4.5259,-4.5269,-4.528,-4.528,-4.5272,-4.5254,-4.5254,-4.5242,-4.524,-4.5235,0,-4.5234,0,-4.523,-4.5225,-4.5225,0,0,0,-4.527,-4.527,-4.5264,-4.528,-4.5272,-4.5254,-4.5261,-4.5241,-4.5239,-4.5233,-4.5234,-4.5233,-4.523,-4.5225,-4.5225,-4.5208,-4.5208,0,0,-4.5271,-4.5277,-4.5265,-4.5263,-4.527,-4.5262,-4.5261,-4.524,-4.524,-4.5234,-4.5232,-4.5229,-4.5225,-4.5225,-4.5208,-4.5208,0,0,0,-4.5275,-4.5278,-4.5272,-4.5264,-4.5261,-4.5262,-4.526,-4.5241,-4.5239,-4.5232,-4.5229,-4.5225,-4.5224,-4.5208,-4.5208,-4.5216,0,0,0,-4.5276,-4.528,-4.5272,-4.5276,-4.5262,-4.5252,-4.5262,-4.524,-4.5238,-4.5229,-4.5225,-4.5224,-4.5208,-4.5208,-4.5216,-4.5219,0,0,0,-4.528,-4.5281,-4.5279,-4.5276,-4.5269,-4.5252,-4.5248,-4.524,-4.5236,-4.5225,-4.5224,-4.5208,-4.5208,-4.5216,-4.5218,-4.5214,0,0,0,-4.5286,-4.5287,-4.528,-4.5279,-4.5269,-4.5258,-4.5249,-4.524,-4.5231,-4.5225,-4.5208,-4.5208,-4.5216,-4.5218,-4.5214,-4.5212,-4.5212,0,0,-4.5291,-4.5288,-4.5287,-4.5279,-4.5272,-4.5261,-4.5252,-4.5238,-4.5229,-4.5215,-4.5214,-4.5216,-4.5218,-4.5214,-4.5213,-4.5213,0,0,0,-4.529,-4.5289,-4.5286,-4.5279,-4.5269,-4.5258,-4.5245,-4.5238,-4.5225,-4.5225,-4.5214,-4.5215,-4.5213,-4.5211,-4.5211,-4.5207,-4.5208,-4.5208,-4.5208,-4.5306,-4.5296,-4.5292,-4.5279,-4.5272,-4.5256,-4.5247,-4.5235,-4.5228,-4.5225,-4.522,-4.5221,-4.5219,-4.522,-4.5215,-4.5219,-4.5219,-4.5219,-4.5219,-4.531,-4.5306,-4.5294,-4.5286,-4.5273,-4.5264,-4.5247,-4.5241,-4.5228,-4.5224,-4.5221,-4.5218,-4.522,-4.5216,-4.522,-4.522,-4.5219,-4.5219,-4.5219,-4.5318,-4.5314,-4.5308,-4.5294,-4.5284,-4.5268,-4.5256,-4.5245,-4.5234,-4.5231,-4.5223,-4.5223,-4.5219,-4.5228,-4.5228,-4.5228,-4.5228,-4.5228,-4.5228,-4.5329,-4.5321,-4.5315,-4.5301,-4.5293,-4.5281,-4.5261,-4.5252,-4.5237,-4.523,-4.5229,-4.5219,-4.5224,-4.5224,-4.5228,-4.5228,-4.5228,-4.5228,-4.5228,-4.5336,-4.5332,-4.5322,-4.5314,-4.5294,-4.5282,-4.5268,-4.5248,-4.5238,-4.5231,-4.522,-4.5226,-4.5221,-4.5221,-4.5221,-4.5225,-4.5225,-4.5225,-4.5225,-4.5342,-4.5339,-4.5324,-4.5311,-4.5296,-4.5281,-4.5263,-4.5246,-4.5227,-4.5218,-4.5216,-4.5215,-4.5216,-4.5211,-4.5211,-4.521,-4.5211,-4.5211,-4.5211,-4.5344,-4.5338,-4.5329,-4.5313,-4.5295,-4.5279,-4.5261,-4.5242,-4.5219,-4.521,-4.5211,-4.5211,-4.521,-4.5211,-4.5203,-4.5203,-4.5203,0,0]}]]